Location: Gebenbach
(49.5378°N, 11.8735°E)
Time: 11:57:52
(UTC+00:00)

H-2A R/B - Pass Details

Date: 29 October 2020
Orbit: 733 x 837 km, 98.2° (Epoch: 24 November)

Event Time Altitude Azimuth Distance (km) Brightness Sun altitude
Exits shadow 17:56:29 - 161° (SSE) 3,362 5.1 -20.2°
Rises 17:56:30 0° 161° (SSE) 3,357 5.1 -20.2°
Reaches altitude 10° 17:58:50 10° 160° (SSE) 2,435 4.4 -20.6°
Maximum altitude 18:04:15 83° 75° (ENE) 851 2.1 -21.4°
Drops below altitude 10° 18:09:45 10° 347° (NNW) 2,461 4.8 -22.3°
Sets 18:12:07 0° 347° (NNW) 3,394 5.6 -22.7°
